Regional Weather Roundup
Issued by NWS Charleston, WV

Home | Current Version | Previous Version | Text Only | Print | Product List | Glossary On
Versions: 1 2 3 4 5 6 7 8 9 10 11 12 13 14 15 16 17 18 19 20 21 22 23 24 25 26 27 28 29 30 31 32 33 34 35 36 37 38 39 40 41 42 43 44 45 46 47 48 49 50
000
ASUS41 KRLX 031510
RWRRLX
West Virginia Regional Weather Roundup
National Weather Service Charleston WV
1100 AM EDT SUN MAY 03 2015

Note: "fair" indicates few or no clouds below 12,000 feet with no
significant weather and/or obstructions to visibility.

WVZ003-031600-
Northern Panhandle of West Virginia

CITY           SKY/WX    TMP DP  RH WIND       PRES   REMARKS
WHEELING       PTSUNNY   68  45  43 SW5       30.15R
$$

WVZ009-031600-
Northwest West Virginia

CITY           SKY/WX    TMP DP  RH WIND       PRES   REMARKS
PARKERSBURG    MOSUNNY   68  42  38 SW7       30.19S
$$

WVZ006-031600-
Western West Virginia

CITY           SKY/WX    TMP DP  RH WIND       PRES   REMARKS
HUNTINGTON     MOSUNNY   68  44  42 SW6       30.16S
$$

WVZ015-031600-
West Central West Virginia

CITY           SKY/WX    TMP DP  RH WIND       PRES   REMARKS
CHARLESTON     MOSUNNY   70  45  40 CALM      30.17S
$$

WVZ022-031-031600-
North Central West Virginia

CITY           SKY/WX    TMP DP  RH WIND       PRES   REMARKS
CLARKSBURG     SUNNY     68  44  42 VRB6      30.17S
MORGANTOWN     SUNNY     70  39  32 W6        30.17S
$$

WVZ025-035-042-045-031600-
Southern West Virginia

CITY           SKY/WX    TMP DP  RH WIND       PRES   REMARKS
BECKLEY        MOSUNNY   67  33  28 VRB6      30.22S
LOGAN          NOT AVBL
BLUEFIELD      SUNNY     67  33  28 MISG      30.24R
LEWISBURG      MOSUNNY   63  39  40 SW5       30.23R
$$

WVZ047-031600-
Northern Mountains of West Virginia

CITY           SKY/WX    TMP DP  RH WIND       PRES   REMARKS
ELKINS         SUNNY     66  38  35 CALM      30.20F
$$

WVZ052-031600-
Eastern Panhandle of West Virginia

CITY           SKY/WX    TMP DP  RH WIND       PRES   REMARKS
MARTINSBURG    SUNNY     72  42  34 VRB3      30.14S
PETERSBURG     SUNNY     65  48  53 E5        30.17F
$$



USA.gov is the U.S. government's official web portal to all federal, state and local government web resources and services.